Regional Weather Roundup
Issued by NWS Little Rock, AR

Home | Current Version | Previous Version | Text Only | Print | Product List | Glossary Off
Versions: 1 2 3 4 5 6 7 8 9 10 11 12 13 14 15 16 17 18 19 20 21 22 23 24 25 26 27 28 29 30 31 32 33 34 35 36 37 38 39 40 41 42 43 44 45 46 47 48 49 50

000
ASUS44 KLZK 191005
RWRLZK

WEATHER ROUNDUP FOR ARKANSAS
NATIONAL WEATHER SERVICE LITTLE ROCK AR
400 AM CST FRI DEC 19 2014

NOTE: "FAIR" INDICATES FEW OR NO CLOUDS BELOW 12,000 FEET WITH NO
SIGNIFICANT WEATHER AND/OR OBSTRUCTIONS TO VISIBILITY.

ARZ001-003-010-029-191100-
NORTHWEST ARKANSAS

CITY           SKY/WX    TMP DP  RH WIND       PRES   REMARKS
FAYETTEVILLE   CLOUDY    40  39  97 CALM      30.18R FOG
FORT SMITH     CLOUDY    41  38  89 NE5       30.21R
HARRISON       CLOUDY    37  36  96 E5        30.17F
BENTONVILLE    CLOUDY    39  37  93 NE6       30.17F VSB 1/2
ROGERS         FOG       39  38  96 N6        30.17S VSB 1/2
SILOAM SPGS    CLOUDY    39  34  81 N5        30.19S VSB 1/2
HIGHFILL       FOG       39  39 100 N7        30.16F VSB 1/2
$$

ARZ004-005-016-191100-
NORTH CENTRAL ARKANSAS

CITY           SKY/WX    TMP DP  RH WIND       PRES   REMARKS
BATESVILLE     CLOUDY    39  36  87 E5        30.23R
FLIPPIN        CLOUDY    37  34  87 NE5       30.18F
MTN HOME       CLOUDY    37  36  96 NE3       30.17F FOG
$$

ARZ040-041-191100-
WEST CENTRAL ARKANSAS

CITY           SKY/WX    TMP DP  RH WIND       PRES   REMARKS
MENA           CLOUDY    43  41  93 E3        30.18S
MOUNT IDA      CLOUDY    40  38  93 CALM      30.16S FOG
$$

ARZ009-017-025-026-028-191100-
NORTHEAST ARKANSAS

CITY           SKY/WX    TMP DP  RH WIND       PRES   REMARKS
CORNING        CLOUDY    36  36 100 NE12      30.24F FOG
JONESBORO      CLOUDY    38  36  92 NE9       30.24R
NEWPORT        CLOUDY    39  38  97 NE9       30.25R
WALNUT RIDGE   CLOUDY    37  34  87 NE9       30.22S
BLYTHEVILLE    CLOUDY    38  35  89 NE12      30.24S
$$

ARZ022-023-033-042-044-191100-
CENTRAL ARKANSAS

CITY           SKY/WX    TMP DP  RH WIND       PRES   REMARKS
LITTLE ROCK    CLOUDY    42  38  85 NE8       30.22F
N LITTLE ROCK    N/A     40  40  99 NE7       30.22F
JACKSONVILLE   CLOUDY    41  38  90 N3        30.22F
SEARCY         CLOUDY    40  38  93 CALM      30.24F
HOT SPRINGS    CLOUDY    40  39  97 E6        30.19F FOG
RUSSELLVILLE   CLOUDY    41  38  89 VRB5      30.22R
CLINTON        CLOUDY    39  39 100 CALM      30.24R FOG
$$

ARZ036-191100-
EAST ARKANSAS

CITY           SKY/WX    TMP DP  RH WIND       PRES   REMARKS
WEST MEMPHIS   CLOUDY    41  39  93 N8        30.21F
$$

ARZ050-053-066-070-073-191100-
SOUTHWEST ARKANSAS

CITY           SKY/WX    TMP DP  RH WIND       PRES   REMARKS
ARKADELPHIA    CLOUDY    42  42 100 NE6       30.21F FOG
CAMDEN         CLOUDY    45  39  81 MISG      30.20S FOG
TEXARKANA      CLOUDY    43  43 100 NE6       30.16S FOG
EL DORADO      CLOUDY    45  43  93 N7        30.18R
DE QUEEN       CLOUDY    44  43  96 E5        30.18R FOG
$$

ARZ056-057-069-191100-
SOUTHEAST ARKANSAS

CITY           SKY/WX    TMP DP  RH WIND       PRES   REMARKS
PINE BLUFF     CLOUDY    42  39  89 NE9       30.20S
STUTTGART      CLOUDY    41  37  87 N7        30.22R
MONTICELLO     CLOUDY    44  40  85 VRB6      30.18R

$$





USA.gov is the U.S. government's official web portal to all federal, state and local government web resources and services.